| time (UTC) | temp C | wind direction | speed KPH | gust KPH | rain 1hr cm | rain 24hr cm | rain mn cm | humidity % | barometer mb |
| 20260506143054 | 18 | 360 | 1.6 | 4.8 | 0.00 | 0.00 | 0.00 | 77 | 1000.9 |
| 20260506141556 | 18 | 360 | 0.0 | 6.4 | 0.00 | 0.00 | 0.00 | 78 | 1001.1 |
| 20260506140100 | 17 | 360 | 3.2 | 12.9 | 0.00 | 0.00 | 0.00 | 77 | 1001.2 |
| 20260506134550 | 17 | 360 | 1.6 | 16.1 | 0.00 | 0.00 | 0.00 | 79 | 1001.0 |
| 20260506133053 | 17 | 360 | 1.6 | 4.8 | 0.00 | 0.00 | 0.00 | 80 | 1000.9 |
| 20260506131550 | 16 | 360 | 1.6 | 4.8 | 0.00 | 0.00 | 0.00 | 82 | 1000.8 |
| 20260506130053 | 16 | 360 | 1.6 | 4.8 | 0.00 | 0.00 | 0.00 | 84 | 1001.1 |
| 20260506124548 | 16 | 360 | 1.6 | 4.8 | 0.00 | 0.00 | 0.00 | 85 | 1001.2 |
| 20260506123047 | 15 | 360 | 1.6 | 6.4 | 0.00 | 0.00 | 0.00 | 85 | 1001.2 |
| 20260506121546 | 15 | 360 | 1.6 | 4.8 | 0.00 | 0.00 | 0.00 | 85 | 1001.5 |
| 20260506120054 | 15 | 360 | 1.6 | 6.4 | 0.00 | 0.00 | 0.00 | 86 | 1001.6 |
| 20260506114553 | 14 | 360 | 1.6 | 4.8 | 0.00 | 0.00 | 0.00 | 87 | 1001.6 |
| 20260506113045 | 14 | 360 | 3.2 | 4.8 | 0.00 | 0.00 | 0.00 | 88 | 1001.3 |
| 20260506111546 | 14 | 360 | 3.2 | 6.4 | 0.00 | 0.00 | 0.00 | 88 | 1001.5 |
| 20260506110043 | 13 | 360 | 1.6 | 9.7 | 0.00 | 0.00 | 0.00 | 88 | 1001.5 |
| 20260506104544 | 13 | 360 | 1.6 | 6.4 | 0.00 | 0.00 | 0.00 | 89 | 1001.7 |
| 20260506103041 | 13 | 360 | 3.2 | 6.4 | 0.00 | 0.00 | 0.00 | 89 | 1001.6 |
| 20260506101541 | 13 | 360 | 3.2 | 6.4 | 0.00 | 0.00 | 0.00 | 89 | 1001.4 |
| 20260506100041 | 13 | 360 | 1.6 | 6.4 | 0.00 | 0.00 | 0.00 | 89 | 1001.4 |
| 20260506094544 | 13 | 360 | 1.6 | 6.4 | 0.00 | 0.00 | 0.00 | 88 | 1001.2 |
| 20260506093101 | 13 | 360 | 3.2 | 6.4 | 0.00 | 0.00 | 0.00 | 88 | 1001.1 |
| 20260506091537 | 13 | 360 | 3.2 | 6.4 | 0.00 | 0.00 | 0.00 | 88 | 1001.1 |
| 20260506090039 | 13 | 360 | 1.6 | 6.4 | 0.00 | 0.00 | 0.00 | 87 | 1001.3 |
| 20260506084535 | 13 | 360 | 1.6 | 6.4 | 0.00 | 0.00 | 0.00 | 86 | 1001.4 |
| 20260506083037 | 13 | 360 | 3.2 | 6.4 | 0.00 | 0.00 | 0.00 | 86 | 1001.6 |
| 20260506081531 | 13 | 360 | 1.6 | 6.4 | 0.00 | 0.00 | 0.00 | 85 | 1001.6 |
| 20260506073027 | 14 | 360 | 3.2 | 6.4 | 0.00 | 0.00 | 0.00 | 83 | 1001.6 |
| 20260506071525 | 14 | 360 | 3.2 | 6.4 | 0.00 | 0.00 | 0.00 | 82 | 1001.6 |
| 20260506061517 | 15 | 360 | 1.6 | 6.4 | 0.00 | 0.00 | 0.00 | 77 | 1001.4 |
| 20260506044502 | 17 | 360 | 1.6 | 4.8 | 0.00 | 0.00 | 0.00 | 70 | 1002.1 |
| 20260506043100 | 17 | 360 | 1.6 | 6.4 | 0.00 | 0.00 | 0.00 | 69 | 1001.9 |
| 20260506041609 | 18 | 360 | 1.6 | 4.8 | 0.00 | 0.00 | 0.00 | 68 | 1001.9 |
| 20260506040101 | 18 | 360 | 1.6 | 4.8 | 0.00 | 0.00 | 0.00 | 68 | 1001.8 |
| 20260506034558 | 18 | 360 | 1.6 | 4.8 | 0.00 | 0.00 | 0.00 | 67 | 1001.9 |
| 20260506033056 | 18 | 360 | 3.2 | 8.0 | 0.00 | 0.00 | 0.00 | 67 | 1001.8 |
| 20260506031556 | 18 | 360 | 1.6 | 6.4 | 0.00 | 0.00 | 0.00 | 66 | 1001.7 |
| 20260506030053 | 18 | 360 | 1.6 | 8.0 | 0.00 | 0.00 | 0.00 | 65 | 1001.8 |
| 20260506024555 | 18 | 360 | 1.6 | 4.8 | 0.00 | 0.00 | 0.00 | 65 | 1001.8 |
| 20260506023056 | 18 | 360 | 1.6 | 4.8 | 0.00 | 0.00 | 0.00 | 64 | 1001.8 |
| 20260506021551 | 19 | 360 | 1.6 | 8.0 | 0.00 | 0.00 | 0.00 | 63 | 1001.8 |
| 20260506020117 | 19 | 360 | 1.6 | 6.4 | 0.00 | 0.00 | 0.00 | 63 | 1001.9 |
| 20260506014551 | 19 | 360 | 1.6 | 4.8 | 0.00 | 0.00 | 0.00 | 63 | 1001.6 |
| 20260506013050 | 19 | 360 | 1.6 | 9.7 | 0.00 | 0.00 | 0.00 | 63 | 1001.5 |
| 20260506011550 | 19 | 360 | 1.6 | 4.8 | 0.00 | 0.00 | 0.00 | 62 | 1001.3 |
| 20260506010049 | 20 | 360 | 1.6 | 4.8 | 0.00 | 0.00 | 0.00 | 62 | 1001.1 |
| 20260506004549 | 20 | 360 | 0.0 | 4.8 | 0.00 | 0.00 | 0.00 | 62 | 1001.1 |
| 20260506003048 | 20 | 360 | 0.0 | 4.8 | 0.00 | 0.00 | 0.00 | 62 | 1000.9 |
| 20260506001556 | 20 | 360 | 1.6 | 4.8 | 0.00 | 0.00 | 0.00 | 62 | 1000.7 |
| 20260506000059 | 20 | 360 | 1.6 | 4.8 | 0.00 | 0.00 | 0.00 | 61 | 1000.5 |
| 20260505234547 | 20 | 360 | 1.6 | 6.4 | 0.00 | 0.00 | 0.00 | 60 | 1000.4 |
| 20260505233051 | 20 | 360 | 1.6 | 4.8 | 0.00 | 0.00 | 0.00 | 59 | 1000.2 |
| 20260505231553 | 21 | 360 | 3.2 | 9.7 | 0.00 | 0.00 | 0.00 | 58 | 1000.1 |
| 20260505230050 | 21 | 360 | 3.2 | 12.9 | 0.00 | 0.00 | 0.00 | 56 | 999.7 |
| 20260505224549 | 22 | 168 | 3.2 | 8.0 | 0.00 | 0.00 | 0.00 | 55 | 999.6 |
| 20260505223044 | 23 | 175 | 3.2 | 9.7 | 0.00 | 0.00 | 0.00 | 54 | 999.5 |
| 20260505221550 | 23 | 149 | 3.2 | 8.0 | 0.00 | 0.00 | 0.00 | 56 | 999.3 |
| 20260505220057 | 23 | 127 | 3.2 | 9.7 | 0.00 | 0.00 | 0.00 | 55 | 999.4 |
| 20260505214551 | 25 | 171 | 3.2 | 9.7 | 0.00 | 0.00 | 0.00 | 52 | 999.3 |
| 20260505213042 | 25 | 186 | 1.6 | 8.0 | 0.00 | 0.00 | 0.00 | 52 | 999.5 |
| 20260505211608 | 25 | 124 | 4.8 | 8.0 | 0.00 | 0.00 | 0.00 | 50 | 999.0 |
| 20260505210045 | 25 | 160 | 4.8 | 11.3 | 0.00 | 0.00 | 0.00 | 49 | 998.8 |
| 20260505204553 | 26 | 150 | 4.8 | 11.3 | 0.00 | 0.00 | 0.00 | 49 | 999.2 |
| 20260505203037 | 25 | 158 | 4.8 | 16.1 | 0.00 | 0.00 | 0.00 | 49 | 999.3 |
| 20260505201539 | 26 | 194 | 1.6 | 11.3 | 0.00 | 0.00 | 0.00 | 48 | 999.2 |
| 20260505200037 | 26 | 235 | 3.2 | 11.3 | 0.00 | 0.00 | 0.00 | 45 | 999.5 |
| 20260505194535 | 26 | 166 | 4.8 | 12.9 | 0.00 | 0.00 | 0.00 | 45 | 999.5 |
| 20260505193033 | 26 | 123 | 3.2 | 12.9 | 0.00 | 0.00 | 0.00 | 46 | 999.5 |
| 20260505191535 | 26 | 168 | 3.2 | 11.3 | 0.00 | 0.00 | 0.00 | 47 | 999.4 |
| 20260505190031 | 26 | 155 | 3.2 | 12.9 | 0.00 | 0.00 | 0.00 | 46 | 999.7 |
| 20260505184537 | 26 | 190 | 4.8 | 9.7 | 0.00 | 0.00 | 0.00 | 46 | 999.8 |
| 20260505183028 | 26 | 142 | 3.2 | 14.5 | 0.00 | 0.00 | 0.00 | 47 | 1000.1 |
| 20260505181529 | 26 | 160 | 4.8 | 11.3 | 0.00 | 0.00 | 0.00 | 48 | 999.9 |
| 20260505180027 | 26 | 220 | 3.2 | 11.3 | 0.00 | 0.00 | 0.00 | 47 | 1000.0 |
| 20260505174535 | 26 | 80 | 4.8 | 11.3 | 0.00 | 0.00 | 0.00 | 44 | 1000.1 |
| 20260505173023 | 26 | 196 | 3.2 | 12.9 | 0.00 | 0.00 | 0.00 | 44 | 1000.3 |
| 20260505171532 | 26 | 251 | 4.8 | 14.5 | 0.00 | 0.00 | 0.00 | 44 | 1000.3 |
| 20260505170023 | 26 | 208 | 6.4 | 20.9 | 0.00 | 0.00 | 0.00 | 45 | 1000.5 |
| 20260505164516 | 25 | 188 | 3.2 | 9.7 | 0.00 | 0.00 | 0.00 | 45 | 1000.8 |
| 20260505163014 | 25 | 355 | 3.2 | 8.0 | 0.00 | 0.00 | 0.00 | 49 | 1001.3 |
| 20260505161511 | 25 | 248 | 3.2 | 9.7 | 0.00 | 0.00 | 0.00 | 48 | 1001.6 |
| 20260505153100 | 22 | 360 | 3.2 | 12.9 | 0.00 | 0.00 | 0.00 | 55 | 1001.8 |
| 20260505151602 | 22 | 360 | 1.6 | 8.0 | 0.00 | 0.00 | 0.00 | 57 | 1002.1 |